H1 CPF 2 NER 2022 4 29 9 119 01 glonass132 H2 1401201 9132 39620 2022 4 29 0 0 0 2022 5 2 23 45 0 900 1 1 0 0 0 1 H9 10 0 59698 0.00000 0 18718291.133 -15698173.212 7450308.501 10 0 59698 900.00000 0 19199906.950 -16280194.843 4315909.227 10 0 59698 1800.00000 0 19329040.024 -16656903.017 1097979.383 10 0 59698 2700.00000 0 19133991.453 -16778113.342 -2141202.580 10 0 59698 3600.00000 0 18653982.630 -16601912.426 -5338931.850 10 0 59698 4500.00000 0 17937352.735 -16096610.065 -8433280.845 10 0 59698 5400.00000 0 17039390.407 -15242278.710 -11364289.687 10 0 59698 6300.00000 0 16019889.997 -14031814.716 -14075121.184 10 0 59698 7200.00000 0 14940534.366 -12471475.538 -16513158.359 10 0 59698 8100.00000 0 13862213.506 -10580868.550 -18631023.684 10 0 59698 9000.00000 0 12842391.038 -8392389.723 -20387500.480 10 0 59698 9900.00000 0 11932628.978 -5950133.279 -21748338.566 10 0 59698 10800.00000 0 11176374.677 -3308315.256 -22686928.413 10 0 59698 11700.00000 0 10607103.285 -529274.237 -23184830.270 10 0 59698 12600.00000 0 10246894.440 2318869.645 -23232147.294 10 0 59698 13500.00000 0 10105504.025 5164801.900 -22827734.524 10 0 59698 14400.00000 0 10179971.222 7936740.837 -21979238.481 10 0 59698 15300.00000 0 10454778.795 10565191.968 -20702965.300 10 0 59698 16200.00000 0 10902561.157 12985615.371 -19023578.580 10 0 59698 17100.00000 0 11485331.558 15140894.697 -16973631.485 10 0 59698 18000.00000 0 12156177.456 16983504.213 -14592941.066 10 0 59698 18900.00000 0 12861352.820 18477282.621 -11927816.163 10 0 59698 19800.00000 0 13542678.774 19598738.670 -9030153.484 10 0 59698 20700.00000 0 14140150.263 20337833.127 -5956419.630 10 0 59698 21600.00000 0 14594637.138 20698204.120 -2766539.527 10 0 59698 22500.00000 0 14850563.608 20696826.564 477286.018 10 0 59698 23400.00000 0 14858450.699 20363120.820 3711808.962 10 0 59698 24300.00000 0 14577212.131 19737549.526 6873983.249 10 0 59698 25200.00000 0 13976104.736 18869763.596 9902208.447 10 0 59698 26100.00000 0 13036249.541 17816377.727 12737541.824 10 0 59698 27000.00000 0 11751658.411 16638471.475 15324853.912 10 0 59698 27900.00000 0 10129722.490 15398923.327 17613904.186 10 0 59698 28800.00000 0 8191142.045 14159691.793 19560315.503 10 0 59698 29700.00000 0 5969301.069 12979159.136 21126428.610 10 0 59698 30600.00000 0 3509113.476 11909649.828 22282020.954 10 0 59698 31500.00000 0 865389.951 10995227.755 23004876.993 10 0 59698 32400.00000 0 -1899205.932 10269863.610 23281200.576 10 0 59698 33300.00000 0 -4716526.929 9756047.781 23105863.091 10 0 59698 34200.00000 0 -7515538.281 9463904.971 22482484.252 10 0 59698 35100.00000 0 -10225033.656 9390845.553 21423345.501 10 0 59698 36000.00000 0 -12776359.308 9521766.258 19949138.907 10 0 59698 36900.00000 0 -15106034.889 9829790.046 18088557.238 10 0 59698 37800.00000 0 -17158164.041 10277512.804 15877733.599 10 0 59698 38700.00000 0 -18886536.726 10818703.773 13359541.411 10 0 59698 39600.00000 0 -20256337.865 11400387.995 10582767.980 10 0 59698 40500.00000 0 -21245393.148 11965223.506 7601177.016 10 0 59698 41400.00000 0 -21844901.761 12454073.812 4472477.321 10 0 59698 42300.00000 0 -22059626.646 12808668.204 1257216.778 10 0 59698 43200.00000 0 -21907535.273 12974238.712 -1982377.999 10 0 59698 44100.00000 0 -21418906.315 12902023.310 -5183594.836 10 0 59698 45000.00000 0 -20634939.637 12551530.364 -8284439.688 10 0 59698 45900.00000 0 -19605927.477 11892468.976 -11224828.343 10 0 59698 46800.00000 0 -18389062.890 10906263.432 -13947743.698 10 0 59698 47700.00000 0 -17045976.578 9587087.091 -16400336.657 10 0 59698 48600.00000 0 -15640104.613 7942370.662 -18534949.696 10 0 59698 49500.00000 0 -14233996.676 5992761.483 -20310043.532 10 0 59698 50400.00000 0 -12886677.127 3771533.134 -21691008.852 10 0 59698 51300.00000 0 -11651169.242 1323467.413 -22650847.262 10 0 59698 52200.00000 0 -10572286.338 -1296747.362 -23170707.814 10 0 59698 53100.00000 0 -9684782.767 -4026537.370 -23240267.982 10 0 59698 54000.00000 0 -9011942.893 -6797801.688 -22857950.813 10 0 59698 54900.00000 0 -8564668.127 -9539511.658 -22030972.878 10 0 59698 55800.00000 0 -8341101.379 -12180444.126 -20775220.766 10 0 59698 56700.00000 0 -8326805.741 -14651935.380 -19114957.181 10 0 59698 57600.00000 0 -8495490.805 -16890541.064 -17082360.975 10 0 59698 58500.00000 0 -8810256.727 -18840490.589 -14716908.979 10 0 59698 59400.00000 0 -9225303.790 -20455832.737 -12064610.781 10 0 59698 60300.00000 0 -9688035.111 -21702181.745 -9177110.920 10 0 59698 61200.00000 0 -10141462.835 -22557989.712 -6110676.099 10 0 59698 62100.00000 0 -10526814.754 -23015291.295 -2925087.761 10 0 59698 63000.00000 0 -10786229.287 -23079889.154 317537.384 10 0 59698 63900.00000 0 -10865422.721 -22770972.553 3553974.281 10 0 59698 64800.00000 0 -10716213.671 -22120186.149 6721138.298 10 0 59698 65700.00000 0 -10298795.888 -21170189.553 9757329.733 10 0 59698 66600.00000 0 -9583661.594 -19972770.257 12603448.005 10 0 59698 67500.00000 0 -8553092.823 -18586591.503 15204150.550 10 0 59698 68400.00000 0 -7202157.022 -17074672.039 17508932.950 10 0 59698 69300.00000 0 -5539164.790 -15501705.643 19473108.814 10 0 59698 70200.00000 0 -3585570.669 -13931334.514 21058670.610 10 0 59698 71100.00000 0 -1375321.585 -12423491.715 22235015.496 10 0 59698 72000.00000 0 1046319.070 -11031924.220 22979523.225 10 0 59698 72900.00000 0 3624422.065 -9801999.601 23277976.500 10 0 59698 73800.00000 0 6296448.487 -8768886.780 23124817.325 10 0 59698 74700.00000 0 8994625.717 -7956185.087 22523236.069 10 0 59698 75600.00000 0 11648544.883 -7375056.736 21485093.072 10 0 59698 76500.00000 0 14187872.731 -7023896.643 20030675.503 10 0 59698 77400.00000 0 16545066.478 -6888551.270 18188295.065 10 0 59698 78300.00000 0 18657980.540 -6943075.404 15993734.754 10 0 59698 79200.00000 0 20472258.614 -7150993.748 13489555.381 10 0 59698 80100.00000 0 21943413.489 -7467013.513 10724274.983 10 0 59698 81000.00000 0 23038509.807 -7839115.729 7751436.369 10 0 59698 81900.00000 0 23737381.253 -8210937.458 4628579.967 10 0 59698 82800.00000 0 24033332.595 -8524345.141 1416141.000 10 0 59698 83700.00000 0 23933298.107 -8722091.361 -1823708.672 10 0 59698 84600.00000 0 23457450.180 -8750443.758 -5028252.631 10 0 59698 85500.00000 0 22638274.467 -8561675.833 -8135433.574 10 0 59699 0.00000 0 21519150.019 -8116314.942 -11085045.864 10 0 59699 900.00000 0 20152492.518 -7385052.257 -13819896.082 10 0 59699 1800.00000 0 18597539.088 -6350234.247 -16286905.596 10 0 59699 2700.00000 0 16917864.450 -5006870.846 -18438139.532 10 0 59699 3600.00000 0 15178732.922 -3363116.709 -20231738.376 10 0 59699 4500.00000 0 13444395.748 -1440202.906 -21632735.787 10 0 59699 5400.00000 0 11775446.328 728180.603 -22613746.301 10 0 59699 6300.00000 0 10226343.664 3097028.691 -23155509.238 10 0 59699 7200.00000 0 8843207.651 5611645.846 -23247277.495 10 0 59699 8100.00000 0 7661978.728 8209686.743 -22887042.857 10 0 59699 9000.00000 0 6707019.469 10823529.656 -22081592.268 10 0 59699 9900.00000 0 5990217.465 13382885.274 -20846392.684 10 0 59699 10800.00000 0 5510627.869 15817533.168 -19205305.401 10 0 59699 11700.00000 0 5254671.371 18060072.101 -17190134.025 10 0 59699 12600.00000 0 5196879.816 20048569.047 -14840013.798 10 0 59699 13500.00000 0 5301158.263 21728995.477 -12200653.245 10 0 59699 14400.00000 0 5522510.036 23057347.916 -9323442.497 10 0 59699 15300.00000 0 5809151.184 24001362.675 -6264445.721 10 0 59699 16200.00000 0 6104923.738 24541751.793 -3083297.868 10 0 59699 17100.00000 0 6351903.922 24672907.507 157971.738 10 0 59699 18000.00000 0 6493092.904 24403045.364 3396164.503 10 0 59699 18900.00000 0 6475073.950 23753780.296 6568160.777 10 0 59699 19800.00000 0 6250521.275 22759154.413 9612165.106 10 0 59699 20700.00000 0 5780452.552 21464158.913 12468922.439 10 0 59699 21600.00000 0 5036128.226 19922814.140 15082880.279 10 0 59699 22500.00000 0 4000516.374 18195890.501 17403273.208 10 0 59699 23400.00000 0 2669260.819 16348367.957 19385108.165 10 0 59699 24300.00000 0 1051111.689 14446742.263 20990031.573 10 0 59699 25200.00000 0 -832199.397 12556291.954 22187062.174 10 0 59699 26100.00000 0 -2946633.649 10738420.889 22953176.486 10 0 59699 27000.00000 0 -5247040.163 9048187.126 23273737.110 10 0 59699 27900.00000 0 -7678821.334 7532120.246 23142757.238 10 0 59699 28800.00000 0 -10179998.888 6226416.597 22562997.977 10 0 59699 29700.00000 0 -12683594.668 5155585.548 21545898.097 10 0 59699 30600.00000 0 -15120227.733 4331600.828 20111338.864 10 0 59699 31500.00000 0 -17420820.631 3753589.906 18287249.360 10 0 59699 32400.00000 0 -19519303.708 3408072.100 16109060.409 10 0 59699 33300.00000 0 -21355206.571 3269733.474 13619017.706 10 0 59699 34200.00000 0 -22876030.441 3302704.646 10865367.140 10 0 59699 35100.00000 0 -24039304.324 3462286.990 7901427.475 10 0 59699 36000.00000 0 -24814240.727 3697054.311 4784567.453 10 0 59699 36900.00000 0 -25182922.999 3951241.753 1575106.264 10 0 59699 37800.00000 0 -25140975.534 4167321.721 -1664842.369 10 0 59699 38700.00000 0 -24697689.190 4288658.906 -4872561.104 10 0 59699 39600.00000 0 -23875596.633 4262133.026 -7985932.602 10 0 59699 40500.00000 0 -22709514.930 4040619.150 -10944633.408 10 0 59699 41400.00000 0 -21245094.677 3585221.045 -13691295.616 10 0 59699 42300.00000 0 -19536935.379 2867163.116 -16172614.267 10 0 59699 43200.00000 0 -17646344.777 1869260.366 -18340379.447 10 0 59699 44100.00000 0 -15638834.627 586903.079 -20152413.330 10 0 59699 45000.00000 0 -13581456.585 -971487.016 -21573393.965 10 0 59699 45900.00000 0 -11540088.562 -2784550.657 -22575549.724 10 0 59699 46800.00000 0 -9576784.244 -4818633.721 -23139210.541 10 0 59699 47700.00000 0 -7747296.156 -7028954.498 -23253204.558 10 0 59699 48600.00000 0 -6098875.659 -9361249.412 -22915091.615 10 0 59699 49500.00000 0 -4668442.037 -11753830.852 -22131227.902 10 0 59699 50400.00000 0 -3481197.741 -14139973.027 -20916659.230 10 0 59699 51300.00000 0 -2549748.308 -16450527.570 -19294843.643 10 0 59699 52200.00000 0 -1873764.428 -18616660.321 -17297207.407 10 0 59699 53100.00000 0 -1440200.833 -20572594.827 -14962541.872 10 0 59699 54000.00000 0 -1224062.959 -22258247.236 -12336252.088 10 0 59699 54900.00000 0 -1189688.894 -23621641.185 -9469471.293 10 0 59699 55800.00000 0 -1292491.898 -24621000.064 -6418058.620 10 0 59699 56700.00000 0 -1481088.715 -25226427.517 -3241500.069 10 0 59699 57600.00000 0 -1699722.044 -25421104.394 -1735.166 10 0 59699 58500.00000 0 -1890872.664 -25201951.005 3238066.308 10 0 59699 59400.00000 0 -1997948.402 -24579726.610 6414751.972 10 0 59699 60300.00000 0 -1967933.781 -23578562.263 9466432.836 10 0 59699 61200.00000 0 -1753886.098 -22234947.682 12333701.525 10 0 59699 62100.00000 0 -1317170.545 -20596216.164 14960797.646 10 0 59699 63000.00000 0 -629338.604 -18718592.925 17296696.663 10 0 59699 63900.00000 0 326430.344 -16664890.689 19296100.532 10 0 59699 64800.00000 0 1554385.190 -14501950.730 20920311.075 10 0 59699 65700.00000 0 3045796.608 -12297937.759 22137969.773 10 0 59699 66600.00000 0 4779104.383 -10119602.491 22925650.772 10 0 59699 67500.00000 0 6720611.801 -8029626.109 23268297.125 10 0 59699 68400.00000 0 8825697.388 -6084156.647 23159493.496 10 0 59699 69300.00000 0 11040492.937 -4330638.547 22601571.734 10 0 59699 70200.00000 0 13303957.674 -2806023.793 21605548.835 10 0 59699 71100.00000 0 15550262.440 -1535436.685 20190899.737 10 0 59699 72000.00000 0 17711385.134 -531345.386 18385170.286 10 0 59699 72900.00000 0 19719810.449 206727.799 16223438.319 10 0 59699 73800.00000 0 21511222.763 691947.645 13747633.362 10 0 59699 74700.00000 0 23027081.389 949371.436 11005727.853 10 0 59699 75600.00000 0 24216972.400 1014653.300 8050814.916 10 0 59699 76500.00000 0 25040640.244 932302.680 4940089.702 10 0 59699 77400.00000 0 25469615.433 753570.403 1733753.143 10 0 59699 78300.00000 0 25488371.108 534051.210 -1506141.684 10 0 59699 79200.00000 0 25094960.459 331103.296 -4716879.231 10 0 59699 80100.00000 0 24301108.274 201193.044 -7836284.977 10 0 59699 81000.00000 0 23131752.320 197276.452 -10803920.267 10 0 59699 81900.00000 0 21624052.825 366327.318 -13562246.062 10 0 59699 82800.00000 0 19825910.363 747116.442 -16057733.486 10 0 59699 83700.00000 0 17794052.769 1368335.893 -18241900.105 10 0 59699 84600.00000 0 15591769.551 2247148.354 -20072252.097 10 0 59699 85500.00000 0 13286387.098 3388224.032 -21513114.016 10 0 59700 0.00000 0 10946589.047 4783307.505 -22536329.894 10 0 59700 900.00000 0 8639691.274 6411335.832 -23121822.133 10 0 59700 1800.00000 0 6428987.700 8239103.624 -23257995.406 10 0 59700 2700.00000 0 4371273.003 10222452.384 -22941978.690 10 0 59700 3600.00000 0 2514648.672 12307934.972 -22179698.140 10 0 59700 4500.00000 0 896703.006 14434888.412 -20985778.734 10 0 59700 5400.00000 0 -456858.306 16537829.796 -19383275.146 10 0 59700 6300.00000 0 -1533073.267 18549076.092 -17403235.715 10 0 59700 7200.00000 0 -2332039.768 20401478.391 -15084106.862 10 0 59700 8100.00000 0 -2866673.427 22031155.734 -12470988.655 10 0 59700 9000.00000 0 -3161917.416 23380112.965 -9614755.486 10 0 59700 9900.00000 0 -3253438.018 24398631.325 -6571059.085 10 0 59700 10800.00000 0 -3185862.063 25047329.892 -3399233.754 10 0 59700 11700.00000 0 -3010632.160 25298809.660 -161126.163 10 0 59700 12600.00000 0 -2783572.382 25138809.834 3080125.998 10 0 59700 13500.00000 0 -2562269.608 24566826.929 6261341.044 10 0 59700 14400.00000 0 -2403383.725 23596170.376 9320539.922 10 0 59700 15300.00000 0 -2360002.777 22253452.676 12198166.356 10 0 59700 16200.00000 0 -2479156.930 20577536.533 14838255.361 10 0 59700 17100.00000 0 -2799597.916 18617984.504 17189526.391 10 0 59700 18000.00000 0 -3349938.702 16433077.855 19206379.295 10 0 59700 18900.00000 0 -4147232.294 14087489.209 20849773.873 10 0 59700 19800.00000 0 -5196049.474 11649707.629 22087976.604 10 0 59700 20700.00000 0 -6488093.689 9189324.665 22897161.145 10 0 59700 21600.00000 0 -8002368.575 6774294.762 23261852.474 10 0 59700 22500.00000 0 -9705890.284 4468283.748 23175207.732 10 0 59700 23400.00000 0 -11554914.058 2328214.673 22639130.011 10 0 59700 24300.00000 0 -13496623.381 402111.305 21664214.478 10 0 59700 25200.00000 0 -15471211.082 -1272673.278 20269529.124 10 0 59700 26100.00000 0 -17414265.824 -2670771.800 18482235.354 10 0 59700 27000.00000 0 -19259365.157 -3779609.517 16337056.257 10 0 59700 27900.00000 0 -20940768.003 -4599671.501 13875602.926 10 0 59700 28800.00000 0 -22396095.441 -5144221.487 11145571.629 10 0 59700 29700.00000 0 -23568889.235 -5438485.906 8199826.782 10 0 59700 30600.00000 0 -24410942.536 -5518338.524 5095386.611 10 0 59700 31500.00000 0 -24884306.381 -5428541.603 1892330.289 10 0 59700 32400.00000 0 -24962888.876 -5220617.732 -1347353.333 10 0 59700 33300.00000 0 -24633580.517 -4950441.699 -4560954.109 10 0 59700 34200.00000 0 -23896858.469 -4675653.357 -7686243.894 10 0 59700 35100.00000 0 -22766843.992 -4453000.009 -10662672.308 10 0 59700 36000.00000 0 -21270809.668 -4335719.869 -13432532.489 10 0 59700 36900.00000 0 -19448155.760 -4371076.641 -15942074.718 10 0 59700 37800.00000 0 -17348896.985 -4598149.226 -18142546.790 10 0 59700 38700.00000 0 -15031721.213 -5045970.232 -19991141.205 10 0 59700 39600.00000 0 -12561699.487 -5732092.651 -21451830.823 10 0 59700 40500.00000 0 -10007741.328 -6661646.511 -22496076.674 10 0 59700 41400.00000 0 -7439899.966 -7826927.155 -23103393.809 10 0 59700 42300.00000 0 -4926638.817 -9207534.633 -23261763.558 10 0 59700 43200.00000 0 -2532172.295 -10771060.872 -22967883.329 10 0 59700 44100.00000 0 -313991.413 -12474298.218 -22227248.000 10 0 59700 45000.00000 0 1679322.657 -14264920.892 -21054060.015 10 0 59700 45900.00000 0 3409905.623 -16083570.698 -19470968.594 10 0 59700 46800.00000 0 4851961.824 -17866260.819 -17508641.773 10 0 59700 47700.00000 0 5992603.684 -19546997.447 -15205178.443 10 0 59700 48600.00000 0 6832143.399 -21060509.157 -12605370.920 10 0 59700 49500.00000 0 7383824.621 -22344968.680 -9759831.893 10 0 59700 50400.00000 0 7673005.712 -23344591.393 -6724002.778 10 0 59700 51300.00000 0 7735829.866 -24011999.655 -3557063.277 10 0 59700 52200.00000 0 7617439.536 -24310251.781 -320764.357 10 0 59700 53100.00000 0 7369812.352 -24214448.588 2921791.144 10 0 59700 54000.00000 0 7049312.201 -23712848.648 6107394.853 10 0 59700 54900.00000 0 6714061.398 -22807444.471 9173980.096 10 0 59700 55800.00000 0 6421247.455 -21513975.230 12061843.932 10 0 59700 56700.00000 0 6224480.504 -19861375.881 14714818.774 10 0 59700 57600.00000 0 6171314.851 -17890686.741 17081369.779 10 0 59700 58500.00000 0 6301040.525 -15653470.534 19115596.079 10 0 59700 59400.00000 0 6642838.654 -13209804.634 20778116.503 10 0 59700 60300.00000 0 7214378.430 -10625933.698 22036823.230 10 0 59700 61200.00000 0 8020914.207 -7971681.765 22867489.772 10 0 59700 62100.00000 0 9054919.867 -5317732.150 23254223.044 10 0 59700 63000.00000 0 10296274.808 -2732888.173 23189752.374 10 0 59700 63900.00000 0 11712992.696 -281427.946 22675551.569 10 0 59700 64800.00000 0 13262461.733 1979338.387 21721793.225 10 0 59700 65700.00000 0 14893144.021 4001209.464 20347137.493 10 0 59700 66600.00000 0 16546662.890 5746844.939 18578360.318 10 0 59700 67500.00000 0 18160191.263 7191058.910 16449828.906 10 0 59700 68400.00000 0 19669041.991 8321603.325 14002834.662 10 0 59700 69300.00000 0 21009352.810 9139411.056 11284796.302 10 0 59700 70200.00000 0 22120754.863 9658290.597 8348347.982 10 0 59700 71100.00000 0 22948914.311 9904086.766 5250329.270 10 0 59700 72000.00000 0 23447841.704 9913343.581 2050695.646 10 0 59700 72900.00000 0 23581873.223 9731526.022 -1188630.380 10 0 59700 73800.00000 0 23327241.213 9410875.459 -4404946.324 10 0 59700 74700.00000 0 22673168.205 9007988.673 -7535972.776 10 0 59700 75600.00000 0 21622438.123 8581221.944 -10521049.997 10 0 59700 76500.00000 0 20191419.767 8188028.966 -13302305.631 10 0 59700 77400.00000 0 18409540.293 7882344.298 -15825771.358 10 0 59700 78300.00000 0 16318228.979 7712122.383 -18042427.312 10 0 59700 79200.00000 0 13969373.536 7717135.878 -19909154.297 10 0 59700 80100.00000 0 11423351.465 7927126.569 -21389575.330 10 0 59700 81000.00000 0 8746716.643 8360387.670 -22454770.089 10 0 59700 81900.00000 0 6009635.760 9022838.594 -23083848.041 10 0 59700 82800.00000 0 3283180.017 9907632.921 -23264368.460 10 0 59700 83700.00000 0 636583.705 10995318.112 -22992598.358 10 0 59700 84600.00000 0 -1865416.934 12254542.496 -22273602.190 10 0 59700 85500.00000 0 -4165053.904 13643281.933 -21121160.350 10 0 59701 0.00000 0 -6213703.618 15110536.399 -19557516.829 10 0 59701 900.00000 0 -7973678.945 16598427.451 -17612958.694 10 0 59701 1800.00000 0 -9419559.110 18044607.268 -15325236.594 10 0 59701 2700.00000 0 -10539005.059 19384880.821 -12738833.832 10 0 59701 3600.00000 0 -11333023.096 20555928.412 -9904099.728 10 0 59701 4500.00000 0 -11815666.923 21498013.641 -6876263.365 10 0 59701 5400.00000 0 -12013191.007 22157561.084 -3714347.516 10 0 59701 6300.00000 0 -11962692.019 22489493.250 -480004.842 10 0 59701 7200.00000 0 -11710297.189 22459226.456 2763699.491 10 0 59701 8100.00000 0 -11308978.102 22044239.873 5953533.419 10 0 59701 9000.00000 0 -10816084.591 21235150.353 9027345.770 10 0 59701 9900.00000 0 -10290705.366 20036247.080 11925290.115 10 0 59701 10800.00000 0 -9790969.178 18465463.417 14590999.446 10 0 59701 11700.00000 0 -9371402.525 16553787.527 16972687.732 10 0 59701 12600.00000 0 -9080456.879 14344137.405 19024156.370 10 0 59701 13500.00000 0 -8958310.596 11889748.549 20705686.007 10 0 59701 14400.00000 0 -9035038.330 9252142.844 21984797.041 10 0 59701 15300.00000 0 -9329224.588 6498764.496 22836865.051 10 0 59701 16200.00000 0 -9847078.829 3700382.153 23245580.718 10 0 59701 17100.00000 0 -10582088.086 928365.374 23203246.960 10 0 59701 18000.00000 0 -11515220.353 -1748051.767 22710909.207 10 0 59701 18900.00000 0 -12615669.029 -4264407.434 21778317.881 10 0 59701 19800.00000 0 -13842106.264 -6563441.458 20423725.129 10 0 59701 20700.00000 0 -15144392.137 -8597218.558 18673520.713 10 0 59701 21600.00000 0 -16465668.004 -10328859.712 16561714.681 10 0 59701 22500.00000 0 -17744746.675 -11733812.191 14129276.963 10 0 59701 23400.00000 0 -18918699.996 -12800607.810 11423346.457 10 0 59701 24300.00000 0 -19925536.403 -13531079.988 8496324.400 10 0 59701 25200.00000 0 -20706857.311 -13940032.364 5404868.706 10 0 59701 26100.00000 0 -21210381.979 -14054374.119 2208807.922 10 0 59701 27000.00000 0 -21392235.820 -13911759.035 -1030005.222 10 0 59701 27900.00000 0 -21218906.672 -13558785.744 -4248879.465 10 0 59701 28800.00000 0 -20668787.083 -13048834.606 -7385487.762 10 0 59701 29700.00000 0 -19733237.523 -12439631.823 -10379064.672 10 0 59701 30600.00000 0 -18417125.086 -11790642.676 -13171575.945 10 0 59701 31500.00000 0 -16738813.774 -11160403.012 -15708838.110 10 0 59701 32400.00000 0 -14729605.044 -10603900.839 -17941566.850 10 0 59701 33300.00000 0 -12432649.925 -10170118.008 -19826334.116 10 0 59701 34200.00000 0 -9901376.036 -9899835.534 -21326415.434 10 0 59701 35100.00000 0 -7197492.849 -9823795.393 -22412510.901 10 0 59701 36000.00000 0 -4388656.253 -9961297.042 -23063325.507 10 0 59701 36900.00000 0 -1545887.865 -10319288.966 -23265996.912 10 0 59701 37800.00000 0 1259144.980 -10891995.096 -23016361.504 10 0 59701 38700.00000 0 3956876.467 -11661093.655 -22319052.496 10 0 59701 39600.00000 0 6482502.918 -12596442.768 -21187426.884 10 0 59701 40500.00000 0 8778446.177 -13657324.096 -19643321.316 10 0 59701 41400.00000 0 10796516.894 -14794153.647 -17716640.274 10 0 59701 42300.00000 0 12499686.871 -15950588.683 -15444783.400 10 0 59701 43200.00000 0 13863395.912 -17065942.423 -12871922.185 10 0 59701 44100.00000 0 14876338.004 -18077804.531 -10048139.529 10 0 59701 45000.00000 0 15540693.601 -18924755.981 -7028448.933 10 0 59701 45900.00000 0 15871798.505 -19549062.389 -3871712.845 10 0 59701 46800.00000 0 15897263.971 -19899230.355 -639482.174 10 0 59701 47700.00000 0 15655586.337 -19932316.943 2605219.007 10 0 59701 48600.00000 0 15194306.568 -19615892.985 5799138.229 10 0 59701 49500.00000 0 14567799.516 -18929575.707 8880042.882 10 0 59701 50400.00000 0 13834788.577 -17866064.958 11787945.808 10 0 59701 51300.00000 0 13055693.021 -16431638.723 14466282.938 10 0 59701 52200.00000 0 12289922.056 -14646087.007 16863019.004 10 0 59701 53100.00000 0 11593231.490 -12542087.332 18931659.155 10 0 59701 54000.00000 0 11015255.471 -10164048.769 20632146.878 10 0 59701 54900.00000 0 10597317.680 -7566473.821 21931631.348 10 0 59701 55800.00000 0 10370613.808 -4811907.534 22805090.327 10 0 59701 56700.00000 0 10354840.843 -1968559.995 23235797.969 10 0 59701 57600.00000 0 10557329.419 892298.586 23215630.126 10 0 59701 58500.00000 0 10972714.076 3699062.100 22745202.881 10 0 59701 59400.00000 0 11583153.652 6382519.791 21833843.268 10 0 59701 60300.00000 0 12359091.152 8878482.594 20499394.019 10 0 59701 61200.00000 0 13260520.100 11130197.308 18767857.164 10 0 59701 62100.00000 0 14238703.670 13090450.635 16672883.946 10 0 59701 63000.00000 0 15238274.308 14723278.054 14255121.072 10 0 59701 63900.00000 0 16199626.078 16005208.746 11561425.819 10 0 59701 64800.00000 0 17061499.974 16925996.981 8643964.606 10 0 59701 65700.00000 0 17763654.595 17488811.332 5559211.720 10 0 59701 66600.00000 0 18249510.956 17709875.236 2366866.709 10 0 59701 67500.00000 0 18468661.235 17617574.953 -871289.601 10 0 59701 68400.00000 0 18379136.687 17251072.778 -4092579.338 10 0 59701 69300.00000 0 17949339.704 16658483.721 -7234629.972 10 0 59701 70200.00000 0 17159558.700 15894691.903 -10236572.440 10 0 59701 71100.00000 0 16003001.475 15018897.856 -13040212.578 10 0 59701 72000.00000 0 14486302.527 14091999.132 -15591153.608 10 0 59701 72900.00000 0 12629481.344 13173913.697 -17839848.463 10 0 59701 73800.00000 0 10465351.303 12320958.124 -19742561.807 10 0 59701 74700.00000 0 8038401.622 11583390.523 -21262223.118 10 0 59701 75600.00000 0 5403196.551 11003221.569 -22369154.242 10 0 59701 76500.00000 0 2622356.143 10612386.033 -23041656.916 10 0 59701 77400.00000 0 -235799.398 10431352.492 -23266448.251 10 0 59701 78300.00000 0 -3099845.633 10468230.767 -23038934.874 10 0 59701 79200.00000 0 -5897983.455 10718416.026 -22363319.346 10 0 59701 80100.00000 0 -8560789.580 11164786.029 -21252535.505 10 0 59701 81000.00000 0 -11023873.886 11778444.741 -19728012.662 10 0 59701 81900.00000 0 -13230332.848 12519982.327 -17819271.873 10 0 59701 82800.00000 0 -15132896.268 13341199.434 -15563360.948 10 0 59701 83700.00000 0 -16695677.013 14187223.544 -13004138.257 10 0 59701 84600.00000 0 -17895449.932 14998928.035 -10191418.675 10 0 59701 85500.00000 0 -18722405.766 15715551.116 -7179998.271 99